Gage, OK

4:45 PM CDT on June 24, 2018 (GMT -0500)
Gage

Weather History for KGAG - October, 2017

Change the Weather History Date:

Thursday, October 12, 2017

  Actual Average Record
Temperature  
Mean Temperature 70 °F -  
Max Temperature 86 °F 76 °F 91 °F (1966)
Min Temperature 54 °F 47 °F 27 °F (1977)
Cooling Degree Days 5    
Growing Degree Days 20 (Base 50)    
Moisture  
Dew Point 53 °F    
Average Humidity 59    
Maximum Humidity 75    
Minimum Humidity 37    
Precipitation  
Precipitation 0.00 in - - ()
Sea Level Pressure  
Sea Level Pressure 29.90 in    
Wind  
Wind Speed 17 mph (South)    
Max Wind Speed 26 mph    
Max Gust Speed 37 mph    
Visibility 10 miles    
Events      
Averages and records for this station are not official NWS values.
T = Trace of Precipitation, MM = Missing Value Source: NWS Daily Summary

Daily Weather History Graph

Daily Weather History Graph

Search for Another Location

Airport or City:

Astronomy

Oct. 12, 2017 Rise Set
Actual Time 7:43 AM CDT 7:06 PM CDT
Civil Twilight 7:17 AM CDT 7:32 PM CDT
Nautical Twilight 6:48 AM CDT 8:02 PM CDT
Astronomical Twilight 6:18 AM CDT 8:32 PM CDT
Moon 12:19 AM CDT (10/12) 2:50 PM CDT (10/12)
Length of Visible Light 12h 14m
Length of Day
11h 22m
Waning Gibbous, 48% of the Moon is Illuminated
Oct 12
Waning Gibbous
Oct 19
New
Oct 27
First Quarter
Nov 4
Full
Nov 10
Last Quarter

Hourly Weather History & Observations

Time (CDT) Temp. Heat Index Dew Point Humidity Pressure Visibility Wind Dir Wind Speed Gust Speed Precip Events Conditions
12:53 AM 54.0 °F - 44.1 °F 69% 29.99 in 10.0 mi South 16.1 mph 26.5 mph N/A   Clear
1:53 AM 54.0 °F - 44.1 °F 69% 29.99 in 10.0 mi South 8.1 mph - N/A   Clear
2:53 AM 55.0 °F - 45.0 °F 69% 29.98 in 10.0 mi South 16.1 mph - N/A   Clear
4:53 AM 55.0 °F - 45.0 °F 69% 29.94 in 10.0 mi South 18.4 mph - N/A   Clear
5:53 AM 54.0 °F - 46.0 °F 75% 29.95 in 10.0 mi South 18.4 mph 25.3 mph N/A   Clear
6:53 AM 54.0 °F - 46.0 °F 75% 29.96 in 10.0 mi SSW 8.1 mph - N/A   Clear
7:53 AM 54.0 °F - 46.0 °F 75% 29.96 in 10.0 mi South 13.8 mph - N/A   Clear
8:53 AM 57.0 °F - 48.0 °F 72% 29.98 in 10.0 mi South 13.8 mph - N/A   Clear
9:53 AM 63.0 °F - 50.0 °F 63% 29.98 in 10.0 mi SSW 16.1 mph 24.2 mph N/A   Clear
10:53 AM 70.0 °F - 53.1 °F 55% 29.95 in 10.0 mi SSW 23.0 mph 32.2 mph N/A   Clear
11:53 AM 75.9 °F - 55.0 °F 48% 29.93 in 10.0 mi South 18.4 mph 27.6 mph N/A   Clear
12:53 PM 80.1 °F 80.2 °F 55.9 °F 43% 29.90 in 10.0 mi South 25.3 mph 31.1 mph N/A   Clear
1:53 PM 82.9 °F 82.1 °F 55.9 °F 39% 29.86 in 10.0 mi SSW 25.3 mph 33.4 mph N/A   Clear
2:53 PM 86.0 °F 84.9 °F 57.0 °F 37% 29.82 in 10.0 mi South 26.5 mph 33.4 mph N/A   Clear
3:53 PM 86.0 °F 84.9 °F 57.0 °F 37% 29.81 in 10.0 mi South 24.2 mph 36.8 mph N/A   Clear
4:53 PM 84.9 °F 84.2 °F 57.9 °F 40% 29.81 in 10.0 mi South 25.3 mph 31.1 mph N/A   Clear
5:53 PM 82.9 °F 82.8 °F 59.0 °F 44% 29.81 in 10.0 mi South 18.4 mph 29.9 mph N/A   Clear
6:53 PM 79.0 °F - 60.1 °F 52% 29.82 in 10.0 mi South 19.6 mph - N/A   Clear
7:53 PM 75.0 °F - 60.1 °F 60% 29.84 in 10.0 mi South 18.4 mph - N/A   Clear
8:53 PM 73.9 °F - 60.1 °F 62% 29.85 in 10.0 mi South 19.6 mph - N/A   Clear
9:53 PM 73.0 °F - 60.1 °F 64% 29.86 in 10.0 mi South 18.4 mph - N/A   Clear
10:53 PM 70.0 °F - 60.1 °F 71% 29.86 in 10.0 mi South 18.4 mph - N/A   Clear
11:53 PM 70.0 °F - 60.1 °F 71% 29.86 in 10.0 mi South 19.6 mph 26.5 mph N/A   Clear